Location: Amsterdam
(30.7274°N, 84.4357°W)
Time: 02:10:38
(UTC+00:00)

Courier 1B - Visible Passes

Search period start: 07 February 2026 00:00
Search period end: 17 February 2026 00:00
Orbit: 962 x 1208 km, 28.3° (Epoch: 6 February)

Date Brightness Start Highest point End Pass type
(mag) Time Alt. Az. Time Alt. Az. Time Alt. Az.
7 Feb 9.1 09:16:06 31° ESE 09:16:06 31° ESE 09:19:32 10° ESE visible
7 Feb 8.6 11:03:00 22° WSW 11:06:18 32° SSW 11:12:16 10° SE visible
8 Feb 10.3 08:25:40 10° ESE 08:25:40 10° ESE 08:25:46 10° ESE visible
8 Feb 8.3 10:12:33 41° SSW 10:12:33 41° SSW 10:18:57 10° SE visible
9 Feb 9.9 01:39:17 10° S 01:39:48 11° SSE 01:39:48 11° SSE visible
9 Feb 9.2 09:22:08 28° SE 09:22:08 28° SE 09:25:28 10° SE visible
9 Feb 9.2 11:09:02 16° WSW 11:12:10 21° SSW 11:17:05 10° SSE visible
10 Feb 10.1 02:35:41 10° SSW 02:36:24 13° SSW 02:36:24 13° SSW visible
10 Feb 10.3 08:31:46 10° ESE 08:31:46 10° ESE 08:31:49 10° ESE visible
10 Feb 8.8 10:18:40 28° SSW 10:18:40 28° SSW 10:24:12 10° SSE visible
11 Feb 9.4 01:42:35 10° SSW 01:46:06 20° S 01:46:06 20° S visible
11 Feb 9.4 09:28:19 22° SSE 09:28:19 22° SSE 09:31:01 10° SE visible
11 Feb 9.6 11:15:49 10° SW 11:17:57 11° SW 11:20:03 10° SSW visible
12 Feb 9.4 00:49:58 10° S 00:54:25 17° SSE 00:55:48 16° SE visible
12 Feb 9.8 02:40:52 10° SW 02:42:42 18° SW 02:42:42 18° SW visible
12 Feb 9.4 10:24:53 17° SSW 10:24:53 17° SSW 10:28:34 10° S visible
12 Feb 9.7 23:58:38 10° SSE 00:00:36 11° SE 00:02:35 10° SE visible
13 Feb 8.9 01:47:23 10° SW 01:52:24 31° S 01:52:24 31° S visible
13 Feb 9.8 09:34:35 15° SSE 09:34:35 15° SSE 09:35:58 10° SSE visible
14 Feb 8.9 00:54:09 10° SSW 01:00:13 27° SSE 01:02:05 24° SE visible
14 Feb 9.6 02:46:33 10° WSW 02:48:59 22° SW 02:48:59 22° SW visible
15 Feb 9.3 00:01:17 10° SSW 00:06:23 20° SSE 00:11:39 10° ESE visible
15 Feb 8.5 01:52:51 10° SW 01:58:39 44° S 01:58:39 44° S visible
16 Feb 8.5 00:59:18 10° SW 01:06:04 40° SSE 01:08:17 33° ESE visible
16 Feb 9.6 02:52:33 10° WSW 02:55:10 24° WSW 02:55:10 24° WSW visible
